This demonstration page uses our WeatherBlox Daily Observations layout. Learn more.

Left ArrowRight Arrow

41.12389, -100.76542

Hourly Observations for December 2, 2017

Temp ( °F °C ) Dew Point ( °F °C ) Humidity (%) Winds ( mph kmh ) Pressure ( in mb ) Visibility ( mi km ) Precip ( " mm )
12:53 am 00:53 Clear 23 -5 17 -8.3 78 78 NNW 7 11 30.17 1022 10 16 0.00 0.00
1:53 am 01:53 Clear 24 -4.4 18 -7.8 77 77 Calm 30.14 1021 10 16 0.00 0.00
2:53 am 02:53 Clear 23 -5 18 -7.8 81 81 WNW 7 11 30.14 1021 10 16 0.00 0.00
3:53 am 03:53 Clear 24 -4.4 18 -7.8 77 77 NW 5 7 30.13 1020 10 16 0.00 0.00
4:53 am 04:53 Clear 21 -6.1 16 -8.9 81 81 WNW 6 9 30.15 1021 10 16 0.00 0.00
5:53 am 05:53 Clear 22 -5.6 16 -8.9 78 78 NNW 3 6 30.16 1021 10 16 0.00 0.00
6:53 am 06:53 Clear 20 -6.7 16 -8.9 85 85 NW 3 6 30.18 1022 10 16 0.00 0.00
7:53 am 07:53 Mostly Sunny 20 -6.7 16 -8.9 85 85 WNW 3 6 30.20 1023 10 16 0.00 0.00
8:53 am 08:53 Sunny 27 -2.8 21 -6.1 78 78 Calm 30.20 1023 10 16 0.00 0.00
9:53 am 09:53 Sunny 33 0.6 23 -5 66 66 Calm 30.18 1022 10 16 0.00 0.00
10:53 am 10:53 Sunny 43 6.1 24 -4.4 47 47 Calm 30.16 1022 10 16 0.00 0.00
11:53 am 11:53 Sunny 56 13.3 24 -4.4 29 29 SSW 14 22 30.12 1020 10 16 0.00 0.00
12:53 pm 12:53 Sunny 60 15.6 25 -3.9 26 26 SSW 16 26 30.08 1019 10 16 0.00 0.00
1:53 pm 13:53 Sunny 61 16.1 25 -3.9 25 25 SW 10 17 30.06 1018 10 16 0.00 0.00
2:53 pm 14:53 Sunny 63 17.2 26 -3.3 25 25 S 9 15 30.03 1017 10 16 0.00 0.00
3:53 pm 15:53 Sunny 62 16.7 27 -2.8 26 26 S 9 15 30.03 1017 10 16 0.00 0.00
4:53 pm 16:53 Sunny 56 13.3 27 -2.8 33 33 S 8 13 30.05 1018 10 16 0.00 0.00
5:53 pm 17:53 Clear 53 11.7 27 -2.8 37 37 S 12 19 30.07 1018 10 16 0.00 0.00
6:53 pm 18:53 Clear 45 7.2 25 -3.9 46 46 SE 6 9 30.10 1019 10 16 0.00 0.00
7:53 pm 19:53 Clear 41 5 25 -3.9 53 53 ESE 9 15 30.11 1020 10 16 0.00 0.00
8:53 pm 20:53 Clear 44 6.7 24 -4.4 45 45 SSE 6 9 30.09 1019 10 16 0.00 0.00
9:53 pm 21:53 Clear 44 6.7 24 -4.4 45 45 SSE 7 11 30.09 1019 10 16 0.00 0.00
10:53 pm 22:53 Clear 45 7.2 24 -4.4 44 44 S 10 17 30.05 1018 10 16 0.00 0.00
11:53 pm 23:53 Clear 43 6.1 24 -4.4 47 47 VRB 3 6 30.03 1017 10 16 0.00 0.00

Powered by AerisWeather